| time (UTC) | temp C | wind direction | speed KPH | gust KPH | rain 1hr cm | rain 24hr cm | rain mn cm | humidity % | barometer mb |
| 20260510120053 | 10 | 0 | 0.0 | 0.0 | 0.00 | 1.04 | 0.08 | 96 | 1002.9 |
| 20260510114550 | 10 | 0 | 0.0 | 0.0 | 0.03 | 1.09 | 0.08 | 96 | 1003.1 |
| 20260510113108 | 10 | 0 | 0.0 | 0.0 | 0.03 | 1.09 | 0.08 | 96 | 1002.7 |
| 20260510111559 | 9 | 231 | 0.0 | 0.0 | 0.03 | 1.09 | 0.08 | 96 | 1002.6 |
| 20260510110059 | 9 | 0 | 0.0 | 0.0 | 0.03 | 1.09 | 0.08 | 96 | 1002.6 |
| 20260510104600 | 9 | 0 | 0.0 | 3.2 | 0.00 | 1.07 | 0.05 | 96 | 1002.2 |
| 20260510103058 | 9 | 0 | 0.0 | 1.6 | 0.00 | 1.07 | 0.05 | 96 | 1002.1 |
| 20260510101558 | 9 | 0 | 0.0 | 1.6 | 0.00 | 1.07 | 0.05 | 96 | 1002.1 |
| 20260510100056 | 9 | 0 | 0.0 | 3.2 | 0.00 | 1.07 | 0.05 | 96 | 1002.0 |
| 20260510094555 | 9 | 0 | 0.0 | 3.2 | 0.00 | 1.09 | 0.05 | 96 | 1001.9 |
| 20260510093107 | 9 | 0 | 0.0 | 0.0 | 0.00 | 1.09 | 0.05 | 96 | 1001.8 |
| 20260510091558 | 9 | 0 | 0.0 | 1.6 | 0.00 | 1.09 | 0.05 | 96 | 1001.4 |
| 20260510090059 | 10 | 0 | 0.0 | 1.6 | 0.00 | 1.09 | 0.05 | 96 | 1001.4 |
| 20260510084554 | 10 | 0 | 0.0 | 0.0 | 0.00 | 1.14 | 0.05 | 96 | 1001.2 |
| 20260510083053 | 10 | 0 | 0.0 | 0.0 | 0.00 | 1.14 | 0.05 | 96 | 1001.4 |
| 20260510081623 | 10 | 0 | 0.0 | 4.8 | 0.00 | 1.14 | 0.05 | 96 | 1001.7 |
| 20260510080051 | 10 | 0 | 0.0 | 1.6 | 0.00 | 1.14 | 0.05 | 96 | 1001.6 |
| 20260510074556 | 10 | 182 | 0.0 | 1.6 | 0.03 | 1.22 | 0.05 | 96 | 1002.1 |
| 20260510073101 | 10 | 0 | 0.0 | 1.6 | 0.03 | 1.22 | 0.05 | 96 | 1002.0 |
| 20260510071551 | 10 | 0 | 0.0 | 3.2 | 0.03 | 1.22 | 0.05 | 96 | 1002.2 |
| 20260510070051 | 10 | 0 | 0.0 | 0.0 | 0.03 | 1.22 | 0.05 | 96 | 1002.3 |
| 20260510064557 | 10 | 0 | 0.0 | 3.2 | 0.00 | 1.22 | 0.03 | 96 | 1002.3 |
| 20260510063050 | 10 | 0 | 0.0 | 4.8 | 0.00 | 1.22 | 0.03 | 96 | 1002.3 |
| 20260510061552 | 10 | 0 | 0.0 | 4.8 | 0.00 | 1.22 | 0.03 | 96 | 1001.6 |
| 20260510060057 | 10 | 0 | 0.0 | 0.0 | 0.00 | 1.22 | 0.03 | 96 | 1001.6 |
| 20260510054551 | 10 | 0 | 0.0 | 0.0 | 0.00 | 1.22 | 0.03 | 96 | 1001.6 |
| 20260510053107 | 10 | 0 | 0.0 | 0.0 | 0.00 | 1.22 | 0.03 | 96 | 1001.7 |
| 20260510051604 | 10 | 0 | 0.0 | 4.8 | 0.00 | 1.22 | 0.03 | 96 | 1001.8 |
| 20260510050100 | 10 | 0 | 0.0 | 0.0 | 0.03 | 1.22 | 0.03 | 96 | 1001.6 |
| 20260510044604 | 10 | 0 | 0.0 | 0.0 | 0.03 | 1.22 | 0.03 | 96 | 1001.5 |
| 20260510043057 | 10 | 0 | 0.0 | 0.0 | 0.03 | 1.22 | 0.03 | 96 | 1001.5 |
| 20260510041550 | 10 | 0 | 0.0 | 0.0 | 0.03 | 1.22 | 0.03 | 96 | 1001.4 |
| 20260510040054 | 10 | 0 | 0.0 | 0.0 | 0.00 | 1.19 | 0.00 | 95 | 1001.4 |
| 20260510034556 | 10 | 0 | 0.0 | 0.0 | 0.00 | 1.19 | 1.19 | 95 | 1001.3 |
| 20260510033108 | 10 | 0 | 0.0 | 0.0 | 0.00 | 1.19 | 1.19 | 95 | 1001.3 |
| 20260510031552 | 11 | 0 | 0.0 | 0.0 | 0.00 | 1.19 | 1.19 | 95 | 1001.4 |
| 20260510030107 | 11 | 0 | 0.0 | 0.0 | 0.00 | 1.19 | 1.19 | 95 | 1001.7 |
| 20260510024553 | 11 | 0 | 0.0 | 0.0 | 0.00 | 1.19 | 1.19 | 95 | 1001.5 |
| 20260510023052 | 11 | 0 | 0.0 | 0.0 | 0.03 | 1.19 | 1.19 | 95 | 1001.6 |
| 20260510021551 | 11 | 0 | 0.0 | 3.2 | 0.03 | 1.19 | 1.19 | 95 | 1001.5 |
| 20260510020053 | 11 | 0 | 0.0 | 4.8 | 0.03 | 1.19 | 1.19 | 95 | 1001.1 |
| 20260510014553 | 11 | 0 | 0.0 | 4.8 | 0.03 | 1.19 | 1.19 | 95 | 1001.3 |
| 20260510013051 | 11 | 0 | 0.0 | 1.6 | 0.00 | 1.17 | 1.17 | 95 | 1001.4 |
| 20260510011548 | 11 | 0 | 0.0 | 1.6 | 0.00 | 1.17 | 1.17 | 95 | 1001.2 |
| 20260510010051 | 11 | 0 | 0.0 | 0.0 | 0.03 | 1.17 | 1.17 | 95 | 1001.1 |
| 20260510004548 | 11 | 0 | 0.0 | 0.0 | 0.03 | 1.17 | 1.17 | 95 | 1000.8 |
| 20260510003054 | 11 | 0 | 0.0 | 3.2 | 0.03 | 1.17 | 1.17 | 95 | 1000.7 |
| 20260510001556 | 11 | 0 | 0.0 | 0.0 | 0.03 | 1.17 | 1.17 | 95 | 1000.7 |
| 20260510000054 | 11 | 0 | 0.0 | 0.0 | 0.03 | 1.14 | 1.14 | 95 | 1000.4 |
| 20260509234556 | 11 | 0 | 0.0 | 3.2 | 0.03 | 1.14 | 1.14 | 95 | 1000.1 |
| 20260509233059 | 11 | 0 | 0.0 | 0.0 | 0.03 | 1.14 | 1.14 | 95 | 1000.0 |
| 20260509231552 | 11 | 0 | 0.0 | 0.0 | 0.03 | 1.14 | 1.14 | 95 | 1000.0 |
| 20260509230051 | 11 | 0 | 0.0 | 1.6 | 0.03 | 1.12 | 1.12 | 95 | 1000.1 |
| 20260509224600 | 11 | 0 | 0.0 | 3.2 | 0.03 | 1.12 | 1.12 | 95 | 1000.1 |
| 20260509223100 | 11 | 0 | 0.0 | 1.6 | 0.05 | 1.12 | 1.12 | 95 | 1000.3 |
| 20260509221555 | 11 | 0 | 0.0 | 0.0 | 0.05 | 1.12 | 1.12 | 95 | 1000.2 |
| 20260509214554 | 11 | 0 | 0.0 | 1.6 | 0.08 | 1.09 | 1.09 | 95 | 1000.3 |
| 20260509213056 | 11 | 0 | 0.0 | 1.6 | 0.08 | 1.07 | 1.07 | 95 | 1000.4 |
| 20260509211602 | 11 | 0 | 0.0 | 0.0 | 0.08 | 1.07 | 1.07 | 95 | 1000.3 |
| 20260509210053 | 11 | 0 | 0.0 | 1.6 | 0.08 | 1.04 | 1.04 | 95 | 1000.5 |
| 20260509204555 | 11 | 216 | 0.0 | 3.2 | 0.10 | 1.02 | 1.02 | 95 | 1000.6 |
| 20260509203103 | 11 | 0 | 0.0 | 1.6 | 0.10 | 0.99 | 0.99 | 95 | 1000.8 |
| 20260509201602 | 11 | 0 | 0.0 | 1.6 | 0.13 | 0.99 | 0.99 | 94 | 1001.2 |
| 20260509200108 | 11 | 0 | 0.0 | 3.2 | 0.10 | 0.94 | 0.94 | 94 | 1001.2 |
| 20260509194553 | 11 | 0 | 0.0 | 4.8 | 0.13 | 0.91 | 0.91 | 94 | 1001.6 |
| 20260509193113 | 11 | 0 | 0.0 | 1.6 | 0.13 | 0.89 | 0.89 | 94 | 1001.7 |
| 20260509191559 | 11 | 139 | 1.6 | 3.2 | 0.15 | 0.86 | 0.86 | 94 | 1001.8 |
| 20260509190053 | 11 | 139 | 0.0 | 3.2 | 0.15 | 0.84 | 0.84 | 94 | 1001.9 |
| 20260509184604 | 11 | 0 | 0.0 | 0.0 | 0.15 | 0.79 | 0.79 | 94 | 1002.3 |
| 20260509183056 | 11 | 0 | 0.0 | 0.0 | 0.15 | 0.76 | 0.76 | 94 | 1002.2 |
| 20260509181555 | 11 | 0 | 0.0 | 3.2 | 0.15 | 0.71 | 0.71 | 94 | 1002.1 |
| 20260509180054 | 10 | 0 | 0.0 | 1.6 | 0.13 | 0.69 | 0.69 | 94 | 1002.1 |
| 20260509174558 | 11 | 0 | 0.0 | 3.2 | 0.13 | 0.64 | 0.64 | 94 | 1002.1 |
| 20260509173105 | 11 | 175 | 0.0 | 1.6 | 0.13 | 0.61 | 0.61 | 94 | 1002.0 |
| 20260509171612 | 11 | 0 | 0.0 | 1.6 | 0.10 | 0.56 | 0.56 | 94 | 1001.8 |
| 20260509170057 | 11 | 0 | 0.0 | 3.2 | 0.13 | 0.56 | 0.56 | 94 | 1001.6 |
| 20260509164554 | 10 | 0 | 0.0 | 0.0 | 0.13 | 0.51 | 0.51 | 94 | 1002.1 |
| 20260509163124 | 10 | 0 | 0.0 | 1.6 | 0.13 | 0.48 | 0.48 | 94 | 1002.3 |
| 20260509161556 | 10 | 0 | 0.0 | 0.0 | 0.13 | 0.46 | 0.46 | 94 | 1002.7 |
| 20260509160058 | 10 | 0 | 0.0 | 0.0 | 0.13 | 0.43 | 0.43 | 94 | 1003.0 |
| 20260509154610 | 10 | 0 | 0.0 | 0.0 | 0.08 | 0.38 | 0.38 | 94 | 1003.2 |
| 20260509153057 | 10 | 0 | 0.0 | 0.0 | 0.05 | 0.36 | 0.36 | 94 | 1003.1 |
| 20260509151603 | 9 | 0 | 0.0 | 0.0 | 0.05 | 0.33 | 0.33 | 94 | 1002.8 |
| 20260509150112 | 9 | 0 | 0.0 | 0.0 | 0.03 | 0.30 | 0.30 | 94 | 1002.9 |
| 20260509144708 | 9 | 0 | 0.0 | 0.0 | 0.03 | 0.30 | 0.30 | 94 | 1003.0 |
| 20260509143057 | 9 | 0 | 0.0 | 0.0 | 0.05 | 0.30 | 0.30 | 94 | 1003.0 |
| 20260509141550 | 8 | 0 | 0.0 | 0.0 | 0.03 | 0.28 | 0.28 | 94 | 1003.0 |
| 20260509140059 | 8 | 0 | 0.0 | 0.0 | 0.05 | 0.28 | 0.28 | 94 | 1003.1 |
| 20260509134557 | 8 | 0 | 0.0 | 0.0 | 0.03 | 0.25 | 0.25 | 93 | 1003.2 |
| 20260509133054 | 8 | 0 | 0.0 | 0.0 | 0.03 | 0.25 | 0.25 | 93 | 1003.3 |
| 20260509131553 | 8 | 0 | 0.0 | 0.0 | 0.03 | 0.25 | 0.25 | 93 | 1003.5 |
| 20260509130105 | 8 | 0 | 0.0 | 0.0 | 0.00 | 0.23 | 0.23 | 93 | 1003.2 |
| 20260509124611 | 7 | 0 | 0.0 | 0.0 | 0.03 | 0.23 | 0.23 | 92 | 1002.9 |
| 20260509123059 | 7 | 0 | 0.0 | 0.0 | 0.03 | 0.23 | 0.23 | 92 | 1003.0 |
| 20260509121552 | 7 | 67 | 0.0 | 4.8 | 0.03 | 0.23 | 0.23 | 92 | 1003.2 |